CW4829 Weather Reports


Display with metric or nautical units.
time (UTC)temp
F
wind
direction
speed
MPH
gust
MPH
rain 1hr
in
rain 24hr
in
rain mn
in
humidity
%
barometer
mb
20260906012553 75 130 1.0 3.0 0.00 0.73 0.73 85 1010.6
20260906012136 75 78 1.0 3.0 0.00 0.73 0.73 85 1010.6
20260906011522 75 70 1.0 4.0 0.00 0.73 0.73 85 1010.6
20260906011041 75 113 1.0 4.0 0.00 0.73 0.73 84 1010.4
20260906010558 75 65 0.0 4.0 0.00 0.73 0.73 84 1010.4
20260906005531 76 71 1.0 3.0 0.00 0.73 0.73 84 1010.2
20260906005052 76 92 0.0 4.0 0.00 0.73 0.73 83 1010.2
20260906004029 76 17 2.0 6.0 0.00 0.73 0.73 83 1010.2
20260906003547 76 86 2.0 7.0 0.00 0.73 0.73 83 1010.2
20260906003103 77 46 1.0 7.0 0.00 0.73 0.73 82 1010.2
20260906002547 77 9 2.0 4.0 0.00 0.73 0.73 82 1010.3
20260906001528 77 43 2.0 5.0 0.00 0.73 0.73 81 1010.3
20260906000520 78 23 2.0 5.0 0.00 0.73 0.73 80 1010.2
20260906000043 78 34 2.0 4.0 0.00 0.73 0.73 80 1010.2
20260905235017 79 24 2.0 5.0 0.00 0.73 0.73 79 1010.2
20260905234532 79 9 1.0 5.0 0.00 0.73 0.73 79 1010.2
20260905234104 79 333 3.0 5.0 0.00 0.73 0.73 78 1010.1
20260905233616 80 37 2.0 5.0 0.00 0.73 0.73 78 1010.1
20260905233112 80 14 0.0 5.0 0.00 0.73 0.73 77 1010.1
20260905232616 80 31 1.0 5.0 0.00 0.73 0.73 77 1009.8
20260905232032 81 166 1.0 3.0 0.00 0.73 0.73 77 1009.8
20260905231542 81 335 0.0 0.0 0.00 0.73 0.73 77 1009.8
20260905231058 81 335 0.0 0.0 0.00 0.73 0.73 76 1009.5
20260905230522 81 335 0.0 2.0 0.00 0.73 0.73 76 1009.5
20260905230041 81 335 1.0 2.0 0.00 0.73 0.73 76 1009.5
20260905225555 81 335 0.0 4.0 0.00 0.73 0.73 76 1009.4
20260905224538 81 343 3.0 6.0 0.00 0.73 0.73 75 1009.4
20260905223540 82 329 1.0 5.0 0.00 0.73 0.73 76 1009.2
20260905223059 82 329 1.0 5.0 0.00 0.73 0.73 76 1009.2
20260905222600 82 329 1.0 5.0 0.00 0.73 0.73 76 1009.4
20260905221521 81 302 3.0 4.0 0.00 0.73 0.73 76 1009.4
20260905221050 81 321 2.0 6.0 0.00 0.73 0.73 76 1009.5
20260905220021 81 330 2.0 4.0 0.00 0.73 0.73 75 1009.5
20260905215521 82 330 2.0 4.0 0.00 0.73 0.73 75 1009.5
20260905215041 82 328 2.0 4.0 0.00 0.73 0.73 75 1009.5
20260905214546 81 329 2.0 5.0 0.00 0.73 0.73 74 1009.5
20260905214100 81 329 2.0 6.0 0.00 0.73 0.73 75 1009.5
20260905213603 81 328 3.0 6.0 0.00 0.73 0.73 74 1009.5
20260905213117 82 288 3.0 6.0 0.00 0.73 0.73 74 1009.5
20260905212534 82 338 1.0 4.0 0.00 0.73 0.73 75 1009.5
20260905212058 81 338 2.0 5.0 0.00 0.73 0.73 74 1009.5
20260905211602 82 338 2.0 5.0 0.00 0.73 0.73 74 1009.5
20260905210518 82 347 3.0 6.0 0.00 0.73 0.73 74 1009.5
20260905210028 82 348 3.0 6.0 0.00 0.73 0.73 74 1009.5
20260905205555 82 341 1.0 5.0 0.00 0.73 0.73 74 1009.6
20260905205047 82 297 2.0 5.0 0.00 0.73 0.73 73 1009.6
20260905204553 82 5 2.0 4.0 0.00 0.73 0.73 75 1009.6
20260905203539 81 340 2.0 5.0 0.00 0.73 0.73 75 1009.8
20260905203047 81 292 2.0 5.0 0.00 0.73 0.73 75 1009.8
20260905202603 81 311 3.0 5.0 0.00 0.73 0.73 75 1009.9
20260905201518 81 342 1.0 3.0 0.00 0.73 0.73 75 1009.9
20260905201023 81 311 0.0 4.0 0.00 0.73 0.73 75 1010.0
20260905200549 82 309 2.0 4.0 0.00 0.73 0.73 75 1010.0
20260905200050 82 344 2.0 7.0 0.00 0.73 0.73 74 1010.0
20260905195024 83 65 2.0 4.0 0.00 0.73 0.73 75 1010.2
20260905194525 82 24 1.0 4.0 0.00 0.73 0.73 75 1010.2
20260905194036 82 355 0.0 2.0 0.00 0.73 0.73 74 1010.2
20260905193120 82 355 2.0 5.0 0.00 0.73 0.73 76 1010.2
20260905192608 81 227 2.0 7.0 0.00 0.73 0.73 75 1010.5
20260905192103 81 296 4.0 7.0 0.00 0.73 0.73 76 1010.5
20260905191613 81 360 1.0 4.0 0.00 0.73 0.73 78 1010.5
20260905191135 81 5 2.0 4.0 0.00 0.73 0.73 77 1010.6
20260905190519 80 217 1.0 3.0 0.00 0.73 0.73 77 1010.6
20260905190020 80 291 0.0 1.0 0.00 0.73 0.73 78 1010.6
20260905185527 80 291 0.0 5.0 0.00 0.73 0.73 78 1010.7
20260905185029 80 291 2.0 5.0 0.00 0.73 0.73 77 1010.7
20260905184554 80 336 1.0 3.0 0.00 0.73 0.73 77 1010.7
20260905183532 80 333 2.0 5.0 0.00 0.73 0.73 76 1010.7
20260905183051 81 334 1.0 3.0 0.00 0.73 0.73 77 1010.7
20260905182554 81 334 1.0 5.0 0.00 0.73 0.73 77 1010.7
20260905182113 81 5 3.0 5.0 0.00 0.73 0.73 77 1010.7
20260905181528 81 46 1.0 2.0 0.00 0.73 0.73 79 1010.7
20260905181042 81 39 0.0 3.0 0.00 0.73 0.73 78 1010.7
20260905180602 81 39 1.0 3.0 0.00 0.73 0.73 78 1010.7
20260905180048 81 127 1.0 4.0 0.00 0.73 0.73 78 1010.7
20260905175037 80 342 2.0 4.0 0.00 0.74 0.73 79 1010.8
20260905174603 80 342 1.0 4.0 0.00 0.74 0.73 80 1010.8
20260905173534 80 336 1.0 5.0 0.00 0.74 0.73 79 1011.0
20260905173053 80 336 1.0 5.0 0.00 0.74 0.73 80 1011.0
20260905172023 79 344 1.0 4.0 0.00 0.74 0.73 81 1011.1
20260905171544 79 342 0.0 5.0 0.00 0.74 0.73 81 1011.1
20260905171047 79 336 2.0 5.0 0.00 0.74 0.73 82 1011.1
20260905170607 79 13 1.0 5.0 0.00 0.74 0.73 82 1011.1
20260905165521 79 114 1.0 6.0 0.00 0.75 0.73 84 1011.1
20260905165039 79 331 3.0 6.0 0.00 0.75 0.73 84 1011.1
20260905164549 78 311 1.0 6.0 0.00 0.75 0.73 84 1011.1
20260905163540 78 160 1.0 4.0 0.00 0.75 0.73 85 1011.2
20260905163047 77 48 1.0 5.0 0.00 0.75 0.73 86 1011.2
20260905162035 77 291 1.0 6.0 0.00 0.75 0.73 86 1011.1
20260905161554 77 326 3.0 6.0 0.00 0.75 0.73 86 1011.1
20260905161034 77 315 2.0 4.0 0.00 0.75 0.73 87 1011.1
20260905160558 77 40 1.0 4.0 0.00 0.75 0.73 88 1011.1
20260905155527 77 95 2.0 4.0 0.00 0.75 0.73 88 1010.9
20260905155038 77 338 2.0 4.0 0.00 0.75 0.73 88 1010.9
20260905154019 77 292 2.0 4.0 0.00 0.75 0.73 89 1010.8
20260905153540 76 122 1.0 4.0 0.00 0.75 0.73 91 1010.8
20260905152531 75 105 1.0 4.0 0.00 0.75 0.73 92 1010.7
20260905152051 75 63 2.0 4.0 0.00 0.75 0.73 92 1010.7
20260905151552 75 130 0.0 4.0 0.00 0.75 0.73 92 1010.7
20260905151045 75 130 2.0 4.0 0.00 0.75 0.73 93 1010.8
20260905150538 75 99 1.0 3.0 0.00 0.75 0.73 94 1010.8
20260905150043 74 99 2.0 3.0 0.00 0.75 0.73 95 1010.8
20260905145540 74 99 1.0 2.0 0.00 0.75 0.73 95 1010.7
20260905144535 73 99 1.0 3.0 0.00 0.75 0.73 96 1010.7
20260905144042 73 99 1.0 3.0 0.00 0.75 0.73 96 1010.6
20260905143606 72 190 1.0 3.0 0.00 0.75 0.73 96 1010.6
20260905142531 71 190 0.0 3.0 0.00 0.75 0.73 97 1010.4
20260905142042 71 190 0.0 0.0 0.00 0.75 0.73 96 1010.4
20260905141541 71 190 0.0 0.0 0.00 0.75 0.73 97 1010.4
20260905141108 71 190 0.0 0.0 0.00 0.75 0.73 97 1010.6
20260905140550 71 190 0.0 0.0 0.00 0.75 0.73 97 1010.6
20260905140113 71 190 0.0 0.0 0.00 0.75 0.73 97 1010.6
20260905135515 70 190 0.0 0.0 0.00 0.75 0.73 97 1010.6
20260905135022 70 190 0.0 0.0 0.00 0.75 0.73 97 1010.6
20260905134525 70 190 0.0 0.0 0.00 0.75 0.73 97 1010.6
20260905134052 70 190 0.0 0.0 0.00 0.75 0.73 97 1010.6
20260905133553 70 190 0.0 0.0 0.00 0.75 0.73 97 1010.6
20260905133045 70 190 0.0 0.0 0.00 0.75 0.73 97 1010.6
20260905132019 70 190 0.0 0.0 0.00 0.75 0.73 98 1011.0
20260905131543 70 190 0.0 0.0 0.00 0.75 0.73 98 1011.0
20260905131057 69 190 0.0 0.0 0.00 0.75 0.73 97 1010.7
20260905130047 69 190 0.0 1.0 0.00 0.75 0.73 97 1010.7
20260905125550 69 190 0.0 1.0 0.01 0.75 0.73 97 1010.8
20260905124548 69 190 0.0 1.0 0.01 0.75 0.73 97 1010.8
20260905123535 69 190 0.0 0.0 0.01 0.75 0.73 97 1011.0
20260905123040 69 190 0.0 2.0 0.02 0.75 0.73 97 1011.0
20260905122025 69 190 2.0 3.0 0.03 0.75 0.73 97 1011.2
20260905121528 69 190 0.0 2.0 0.04 0.75 0.73 97 1011.2
20260905121042 69 190 1.0 2.0 0.04 0.75 0.73 97 1011.7
20260905120029 69 190 1.0 6.0 0.05 0.75 0.73 97 1011.7
20260905115555 69 210 1.0 6.0 0.05 0.74 0.72 97 1010.3
20260905114525 69 195 2.0 6.0 0.07 0.74 0.72 97 1010.3
20260905114041 69 205 2.0 8.0 0.07 0.74 0.72 97 1010.6
20260905113025 70 177 1.0 8.0 0.09 0.73 0.71 97 1010.6
20260905112034 70 176 3.0 6.0 0.10 0.72 0.70 97 1010.6
20260905111036 70 214 2.0 4.0 0.10 0.71 0.69 97 1011.7
20260905110559 70 195 1.0 3.0 0.10 0.70 0.68 96 1011.7
20260905105529 70 281 1.0 8.0 0.12 0.69 0.67 96 1012.2
20260905105035 70 225 4.0 8.0 0.13 0.68 0.66 96 1012.2
20260905104601 70 284 3.0 8.0 0.14 0.67 0.65 96 1012.2
20260905103534 70 290 2.0 10.0 0.14 0.65 0.63 96 1012.3
20260905103056 70 311 3.0 6.0 0.14 0.64 0.62 96 1012.3
20260905102535 70 336 3.0 6.0 0.15 0.63 0.61 96 1012.2
20260905102110 70 306 1.0 4.0 0.16 0.62 0.60 96 1012.2
20260905101043 70 349 0.0 4.0 0.19 0.61 0.59 96 1011.4
20260905100552 70 349 1.0 4.0 0.20 0.60 0.58 96 1011.4
20260905100036 70 355 1.0 4.0 0.19 0.58 0.56 96 1011.4
20260905095600 70 40 2.0 4.0 0.18 0.57 0.55 96 1011.8
20260905095108 70 126 2.0 6.0 0.17 0.55 0.53 96 1011.8
20260905094035 70 90 2.0 12.0 0.15 0.52 0.50 96 1012.2
20260905093605 70 355 5.0 14.0 0.14 0.51 0.49 96 1012.2
20260905092526 70 329 5.0 10.0 0.12 0.48 0.46 95 1012.2
20260905092052 70 310 6.0 10.0 0.10 0.46 0.44 95 1012.2
20260905091608 70 9 3.0 11.0 0.07 0.43 0.41 95 1012.2
20260905090547 70 319 4.0 6.0 0.05 0.40 0.38 96 1010.5
20260905090055 70 61 1.0 3.0 0.07 0.39 0.37 95 1010.5
20260905085040 70 104 0.0 1.0 0.18 0.38 0.36 95 1010.7
20260905084541 71 104 0.0 3.0 0.25 0.37 0.35 95 1010.7
20260905083539 71 104 1.0 3.0 0.35 0.37 0.35 95 1010.6
20260905083047 71 202 1.0 4.0 0.34 0.36 0.34 95 1010.6
20260905082035 72 342 2.0 8.0 0.34 0.36 0.34 95 1010.8
20260905081557 72 212 4.0 8.0 0.34 0.36 0.34 94 1010.8
20260905081107 73 268 4.0 8.0 0.34 0.36 0.34 95 1011.2
20260905080026 73 36 0.0 6.0 0.28 0.30 0.28 95 1011.2
20260905075555 73 348 4.0 9.0 0.23 0.25 0.23 95 1010.8
20260905075101 74 348 3.0 9.0 0.18 0.20 0.18 95 1010.8
20260905074606 74 302 4.0 9.0 0.07 0.09 0.07 95 1010.8
20260905074054 74 182 2.0 9.0 0.01 0.03 0.01 95 1010.6
20260905073550 73 324 3.0 5.0 0.00 0.02 0.00 95 1010.6
20260905072535 73 324 1.0 2.0 0.00 0.02 0.00 95 1010.6
20260905072049 73 324 0.0 1.0 0.00 0.02 0.00 95 1010.6
20260905071553 73 324 0.0 1.0 0.00 0.02 0.00 95 1010.6
20260905070538 73 324 0.0 1.0 0.00 0.02 0.00 94 1010.2
20260905070058 73 324 0.0 0.0 0.00 0.02 0.00 94 1010.2
20260905065045 73 324 0.0 1.0 0.00 0.02 0.00 94 1010.2
20260905064600 73 324 0.0 1.0 0.00 0.02 0.00 94 1010.2
20260905063553 73 324 0.0 0.0 0.00 0.02 0.00 94 1010.7
20260905063050 73 324 0.0 0.0 0.00 0.02 0.00 94 1010.7
20260905062615 73 324 0.0 0.0 0.00 0.02 0.00 94 1010.6
20260905062131 73 324 0.0 0.0 0.00 0.02 0.00 94 1010.6
20260905061617 73 324 0.0 0.0 0.00 0.02 0.00 94 1010.6
20260905061105 73 324 0.0 0.0 0.00 0.02 0.00 94 1010.8
20260905060605 73 324 0.0 0.0 0.00 0.02 0.00 94 1010.8
20260905060030 73 324 0.0 0.0 0.00 0.02 0.00 94 1010.8
20260905055557 73 324 0.0 0.0 0.00 0.02 0.00 93 1011.1
20260905055028 72 324 0.0 0.0 0.00 0.02 0.00 93 1011.1
20260905054527 72 324 0.0 0.0 0.00 0.02 0.00 93 1011.1
20260905054033 72 324 0.0 0.0 0.00 0.02 0.00 93 1011.1
20260905053523 72 324 0.0 0.0 0.00 0.02 0.00 93 1011.1
20260905053024 72 324 0.0 0.0 0.00 0.02 0.00 93 1011.1
20260905052600 72 324 0.0 0.0 0.00 0.02 0.00 93 1011.2
20260905052047 72 324 0.0 0.0 0.00 0.02 0.00 93 1011.2
20260905051546 72 324 0.0 0.0 0.00 0.02 0.00 93 1011.2
20260905051045 72 324 0.0 0.0 0.00 0.02 0.00 92 1011.3
20260905050547 72 324 0.0 0.0 0.00 0.02 0.00 92 1011.3
20260905050025 72 324 0.0 0.0 0.00 0.02 0.00 92 1011.3
20260905045547 72 324 0.0 0.0 0.00 0.02 0.00 92 1011.4
20260905045022 72 324 0.0 0.0 0.00 0.02 0.00 92 1011.4
20260905044534 72 324 0.0 0.0 0.00 0.02 0.00 92 1011.4
20260905044023 72 324 0.0 0.0 0.00 0.02 0.00 92 1011.6
20260905043549 72 324 0.0 0.0 0.00 0.02 0.00 92 1011.6
20260905043048 72 324 0.0 0.0 0.00 0.02 0.00 92 1011.6
20260905042542 72 324 0.0 0.0 0.00 0.02 0.00 92 1011.7
20260905042028 72 324 0.0 0.0 0.00 0.02 0.00 92 1011.7
20260905041528 73 324 0.0 0.0 0.00 0.02 0.00 92 1011.7
20260905041050 73 324 0.0 0.0 0.00 0.02 0.00 92 1011.8
20260905040600 73 324 0.0 0.0 0.00 0.02 0.00 91 1011.8
20260905035522 72 324 0.0 0.0 0.00 0.02 0.02 91 1011.8
20260905035042 72 324 0.0 0.0 0.00 0.02 0.02 91 1011.8
20260905034032 72 324 0.0 0.0 0.00 0.02 0.02 91 1011.7
20260905033546 72 324 0.0 0.0 0.00 0.02 0.02 91 1011.7
20260905033052 73 324 0.0 0.0 0.00 0.02 0.02 91 1011.7
20260905032051 73 324 0.0 0.0 0.00 0.02 0.02 90 1011.8
20260905031607 73 324 0.0 0.0 0.00 0.02 0.02 90 1011.8
20260905031040 73 324 0.0 0.0 0.00 0.02 0.02 90 1011.7
20260905030555 73 324 0.0 0.0 0.00 0.02 0.02 90 1011.7
20260905025532 73 324 0.0 0.0 0.00 0.02 0.02 90 1011.8
20260905025048 73 324 0.0 0.0 0.00 0.02 0.02 89 1011.8
20260905024038 73 324 0.0 0.0 0.00 0.02 0.02 89 1011.8
20260905023556 74 324 0.0 0.0 0.00 0.02 0.02 89 1011.8
20260905022541 74 324 0.0 0.0 0.00 0.02 0.02 89 1011.8
20260905022050 74 324 0.0 0.0 0.00 0.02 0.02 88 1011.8
20260905021031 74 324 0.0 0.0 0.00 0.02 0.02 88 1011.8
20260905020533 74 324 0.0 0.0 0.00 0.02 0.02 88 1011.8
20260905020042 74 324 0.0 0.0 0.00 0.02 0.02 88 1011.8
20260905015550 74 324 0.0 0.0 0.00 0.02 0.02 88 1011.7
20260905015103 74 324 0.0 0.0 0.00 0.02 0.02 88 1011.7
20260905014029 75 324 0.0 0.0 0.00 0.02 0.02 87 1011.7
20260905013544 75 324 0.0 0.0 0.00 0.02 0.02 86 1011.7
20260905013106 75 324 0.0 0.0 0.00 0.02 0.02 86 1011.7